TA5KT-13 Weather Reports


Display with metric or nautical units.
time (UTC)temp
F
wind
direction
speed
MPH
gust
MPH
rain 1hr
in
rain 24hr
in
rain mn
in
humidity
%
barometer
mb
20260906122757 87 0.0 0.0 0.00 0.00 0.00 71 1006.9
20260906121757 87 0.0 0.0 0.00 0.00 0.00 73 1007.0
20260906120757 86 0.0 0.0 0.00 0.00 0.00 74 1007.1
20260906115758 87 0.0 0.0 0.00 0.00 0.00 83 1006.8
20260906114758 87 0.0 0.0 0.00 0.00 0.00 84 1006.8
20260906113757 86 0.0 0.0 0.00 0.00 0.00 89 1006.9
20260906112757 86 0.0 0.0 0.00 0.00 0.00 89 1006.8
20260906111758 86 0.0 0.0 0.00 0.00 0.00 90 1006.9
20260906110757 86 0.0 0.0 0.00 0.00 0.00 89 1007.1
20260906105757 86 0.0 0.0 0.00 0.00 0.00 90 1007.2
20260906104757 86 0.0 0.0 0.00 0.00 0.00 90 1007.3
20260906103758 86 0.0 0.0 0.00 0.00 0.00 91 1007.3
20260906102757 86 0.0 0.0 0.00 0.00 0.00 93 1007.4
20260906101757 86 0.0 0.0 0.00 0.00 0.00 92 1007.6
20260906100757 86 0.0 0.0 0.00 0.00 0.00 91 1007.7
20260906095758 86 0.0 0.0 0.00 0.00 0.00 90 1007.7
20260906094757 86 0.0 0.0 0.00 0.00 0.00 89 1007.7
20260906093757 86 0.0 0.0 0.00 0.00 0.00 89 1007.8
20260906092757 85 0.0 0.0 0.00 0.00 0.00 83 1007.8
20260906091757 85 0.0 0.0 0.00 0.00 0.00 76 1008.0
20260906090757 85 0.0 0.0 0.00 0.00 0.00 75 1008.2
20260906085757 85 0.0 0.0 0.00 0.00 0.00 76 1008.2
20260906084757 85 0.0 0.0 0.00 0.00 0.00 77 1008.2
20260906083757 85 0.0 0.0 0.00 0.00 0.00 78 1008.4
20260906082758 85 0.0 0.0 0.00 0.00 0.00 78 1008.4
20260906081757 85 0.0 0.0 0.00 0.00 0.00 79 1008.4
20260906080756 85 0.0 0.0 0.00 0.00 0.00 78 1008.4
20260906075757 85 0.0 0.0 0.00 0.00 0.00 78 1008.5
20260906074757 85 0.0 0.0 0.00 0.00 0.00 80 1008.6
20260906073757 85 0.0 0.0 0.00 0.00 0.00 88 1008.4
20260906072757 85 0.0 0.0 0.00 0.00 0.00 83 1008.6
20260906071756 85 0.0 0.0 0.00 0.00 0.00 89 1008.4
20260906070756 85 0.0 0.0 0.00 0.00 0.00 82 1008.4
20260906065757 85 0.0 0.0 0.00 0.00 0.00 77 1008.5
20260906064756 85 0.0 0.0 0.00 0.00 0.00 76 1008.5
20260906063756 84 0.0 0.0 0.00 0.00 0.00 77 1008.4
20260906062756 84 0.0 0.0 0.00 0.00 0.00 77 1007.7
20260906061757 84 0.0 0.0 0.00 0.00 0.00 80 1008.5
20260906060757 84 0.0 0.0 0.00 0.00 0.00 81 1008.6
20260906055756 84 0.0 0.0 0.00 0.00 0.00 84 1008.6
20260906054757 84 0.0 0.0 0.00 0.00 0.00 86 1008.5
20260906053757 84 0.0 0.0 0.00 0.00 0.00 85 1008.3
20260906052756 84 0.0 0.0 0.00 0.00 0.00 86 1008.3
20260906051756 84 0.0 0.0 0.00 0.00 0.00 84 1008.3
20260906050756 84 0.0 0.0 0.00 0.00 0.00 83 1008.3
20260906045756 84 0.0 0.0 0.00 0.00 0.00 81 1008.4
20260906044756 84 0.0 0.0 0.00 0.00 0.00 81 1008.4
20260906043756 83 0.0 0.0 0.00 0.00 0.00 81 1008.4
20260906042756 83 0.0 0.0 0.00 0.00 0.00 83 1008.3
20260906041756 84 0.0 0.0 0.00 0.00 0.00 86 1008.4
20260906040755 83 0.0 0.0 0.00 0.00 0.00 87 1008.5
20260906035755 83 0.0 0.0 0.00 0.00 0.00 85 1008.5
20260906034756 83 0.0 0.0 0.00 0.00 0.00 84 1008.4
20260906033755 83 0.0 0.0 0.00 0.00 0.00 81 1008.2
20260906032756 84 0.0 0.0 0.00 0.00 0.00 83 1008.3
20260906031756 83 0.0 0.0 0.00 0.00 0.00 83 1008.4
20260906030756 83 0.0 0.0 0.00 0.00 0.00 82 1008.3
20260906025755 83 0.0 0.0 0.00 0.00 0.00 80 1008.2
20260906024756 83 0.0 0.0 0.00 0.00 0.00 81 1008.2
20260906023756 84 0.0 0.0 0.00 0.00 0.00 79 1008.4
20260906022756 84 0.0 0.0 0.00 0.00 0.00 80 1008.3
20260906021756 84 0.0 0.0 0.00 0.00 0.00 81 1008.1
20260906020755 84 0.0 0.0 0.00 0.00 0.00 83 1008.1
20260906015755 84 0.0 0.0 0.00 0.00 0.00 82 1007.9
20260906014755 85 0.0 0.0 0.00 0.00 0.00 78 1008.0
20260906013756 85 0.0 0.0 0.00 0.00 0.00 77 1008.0
20260906012755 85 0.0 0.0 0.00 0.00 0.00 77 1008.0
20260906011755 84 0.0 0.0 0.00 0.00 0.00 77 1007.9
20260906010755 84 0.0 0.0 0.00 0.00 0.00 77 1007.8
20260906005756 84 0.0 0.0 0.00 0.00 0.00 78 1007.8
20260906004754 84 0.0 0.0 0.00 0.00 0.00 78 1007.9
20260906003755 85 0.0 0.0 0.00 0.00 0.00 77 1007.9
20260906002755 84 0.0 0.0 0.00 0.00 0.00 77 1007.9
20260906001755 85 0.0 0.0 0.00 0.00 0.00 78 1008.0
20260906000755 85 0.0 0.0 0.00 0.00 0.00 79 1008.0
20260905235754 85 0.0 0.0 0.00 0.00 0.00 79 1008.2
20260905234755 85 0.0 0.0 0.00 0.00 0.00 78 1008.1
20260905233755 84 0.0 0.0 0.00 0.00 0.00 78 1008.1
20260905232755 85 0.0 0.0 0.00 0.00 0.00 78 1008.2
20260905231755 85 0.0 0.0 0.00 0.00 0.00 77 1008.2
20260905230755 85 0.0 0.0 0.00 0.00 0.00 77 1008.4
20260905225754 85 0.0 0.0 0.00 0.00 0.00 79 1008.4
20260905224755 85 0.0 0.0 0.00 0.00 0.00 79 1008.4
20260905223754 85 0.0 0.0 0.00 0.00 0.00 78 1008.6
20260905222755 85 0.0 0.0 0.00 0.00 0.00 78 1008.7
20260905221754 85 0.0 0.0 0.00 0.00 0.00 77 1008.7
20260905220754 86 0.0 0.0 0.00 0.00 0.00 77 1008.8
20260905215754 86 0.0 0.0 0.00 0.00 0.00 77 1008.9
20260905214755 86 0.0 0.0 0.00 0.00 0.00 77 1009.0
20260905213755 86 0.0 0.0 0.00 0.00 0.00 77 1009.0
20260905212754 86 0.0 0.0 0.00 0.00 0.00 77 1009.0
20260905211755 86 0.0 0.0 0.00 0.00 0.00 77 1009.0
20260905210755 86 0.0 0.0 0.00 0.00 0.00 77 1009.0
20260905205754 86 0.0 0.0 0.00 0.00 0.00 78 1009.0
20260905204754 85 0.0 0.0 0.00 0.00 0.00 78 1009.0
20260905203754 85 0.0 0.0 0.00 0.00 0.00 78 1009.0
20260905202754 86 0.0 0.0 0.00 0.00 0.00 77 1009.0
20260905201754 85 0.0 0.0 0.00 0.00 0.00 79 1009.1
20260905200754 85 0.0 0.0 0.00 0.00 0.00 79 1009.1
20260905195754 86 0.0 0.0 0.00 0.00 0.00 78 1009.1
20260905194754 86 0.0 0.0 0.00 0.00 0.00 79 1009.2
20260905193754 85 0.0 0.0 0.00 0.00 0.00 79 1009.0
20260905192754 86 0.0 0.0 0.00 0.00 0.00 79 1009.1
20260905191754 85 0.0 0.0 0.00 0.00 0.00 79 1009.0
20260905190754 84 0.0 0.0 0.00 0.00 0.00 80 1009.0
20260905185754 85 0.0 0.0 0.00 0.00 0.00 78 1009.0
20260905184753 85 0.0 0.0 0.00 0.00 0.00 77 1009.0
20260905183753 85 0.0 0.0 0.00 0.00 0.00 76 1009.0
20260905182753 85 0.0 0.0 0.00 0.00 0.00 76 1009.1
20260905181753 86 0.0 0.0 0.00 0.00 0.00 76 1009.0
20260905180754 86 0.0 0.0 0.00 0.00 0.00 76 1009.1
20260905175753 86 0.0 0.0 0.00 0.00 0.00 76 1009.0
20260905174754 85 0.0 0.0 0.00 0.00 0.00 75 1009.0
20260905173753 86 0.0 0.0 0.00 0.00 0.00 77 1008.7
20260905172754 86 0.0 0.0 0.00 0.00 0.00 77 1008.6
20260905171753 86 0.0 0.0 0.00 0.00 0.00 76 1008.5
20260905170753 86 0.0 0.0 0.00 0.00 0.00 77 1008.5
20260905165753 86 0.0 0.0 0.00 0.00 0.00 76 1008.1
20260905164753 86 0.0 0.0 0.00 0.00 0.00 76 1008.1
20260905163753 86 0.0 0.0 0.00 0.00 0.00 76 1008.0
20260905162754 86 0.0 0.0 0.00 0.00 0.00 76 1007.9
20260905161754 86 0.0 0.0 0.00 0.00 0.00 78 1007.7
20260905160753 86 0.0 0.0 0.00 0.00 0.00 79 1007.7
20260905155753 87 0.0 0.0 0.00 0.00 0.00 79 1007.6
20260905154754 87 0.0 0.0 0.00 0.00 0.00 81 1007.5
20260905153753 87 0.0 0.0 0.00 0.00 0.00 81 1007.5
20260905152753 87 0.0 0.0 0.00 0.00 0.00 83 1007.4
20260905151753 87 0.0 0.0 0.00 0.00 0.00 83 1007.3
20260905150752 87 0.0 0.0 0.00 0.00 0.00 85 1007.4
20260905145752 87 0.0 0.0 0.00 0.00 0.00 86 1007.4
20260905144752 87 0.0 0.0 0.00 0.00 0.00 86 1007.3
20260905143753 87 0.0 0.0 0.00 0.00 0.00 88 1007.0
20260905142753 87 0.0 0.0 0.00 0.00 0.00 89 1007.0
20260905141753 87 0.0 0.0 0.00 0.00 0.00 90 1007.0
20260905140753 87 0.0 0.0 0.00 0.00 0.00 91 1006.9
20260905135752 87 0.0 0.0 0.00 0.00 0.00 91 1006.9
20260905134752 87 0.0 0.0 0.00 0.00 0.00 91 1007.0
20260905133752 86 0.0 0.0 0.00 0.00 0.00 91 1007.0
20260905132752 87 0.0 0.0 0.00 0.00 0.00 91 1007.1
20260905131753 87 0.0 0.0 0.00 0.00 0.00 91 1007.1
20260905130752 86 0.0 0.0 0.00 0.00 0.00 91 1007.0
20260905125752 86 0.0 0.0 0.00 0.00 0.00 90 1007.1
20260905124752 86 0.0 0.0 0.00 0.00 0.00 90 1007.1
20260905123752 86 0.0 0.0 0.00 0.00 0.00 90 1007.1